Sparta, IL

7:21 AM CST on December 15, 2019 (GMT -0600)
Sparta Community-Hunter

Weather History for KSAR - August, 2019

Change the Weather History Date:

Monday, August 19, 2019

  Actual Average (KBLV) Record (KBLV)
Temperature  
Mean Temperature 80 °F -  
Max Temperature 91 °F 87 °F 103 °F (1962)
Min Temperature 68 °F 63 °F 51 °F (1977)
Cooling Degree Days 14    
Growing Degree Days 30 (Base 50)    
Moisture  
Dew Point 75 °F    
Average Humidity 86    
Maximum Humidity 100    
Minimum Humidity 62    
Precipitation  
Precipitation 0.02 in - - ()
Sea Level Pressure  
Sea Level Pressure 30.01 in    
Wind  
Wind Speed 3 mph (South)    
Max Wind Speed 10 mph    
Max Gust Speed -    
Visibility 10 miles    
Events Rain , Thunderstorm    
Averages and records for this station are not official NWS values.
T = Trace of Precipitation, MM = Missing Value Source: NWS Daily Summary

Daily Weather History Graph

Daily Weather History Graph

Search for Another Location

Airport or City:

Astronomy

Aug. 19, 2019 Rise Set
Actual Time 6:17 AM CDT 7:47 PM CDT
Civil Twilight 5:49 AM CDT 8:15 PM CDT
Nautical Twilight 5:15 AM CDT 8:48 PM CDT
Astronomical Twilight 4:40 AM CDT 9:23 PM CDT
Moon 10:11 PM CDT (8/19) 9:55 AM CDT (8/19)
Length of Visible Light 14h 25m
Length of Day
13h 30m
Waning Gibbous, 85% of the Moon is Illuminated
Aug 19
Waning Gibbous
Aug 23
Last Quarter
Aug 30
New
Sep 5
First Quarter
Sep 13
Full

Hourly Weather History & Observations

Time (CDT) Temp. Heat Index Dew Point Humidity Pressure Visibility Wind Dir Wind Speed Gust Speed Precip Events Conditions
12:15 AM 74.3 °F - 71.6 °F 91% 29.97 in 10.0 mi SSW 4.6 mph - N/A   Clear
12:35 AM 74.3 °F - 71.6 °F 91% 29.97 in 10.0 mi South 6.9 mph - N/A   Clear
12:55 AM 74.3 °F - 71.6 °F 91% 29.97 in 10.0 mi SSW 5.8 mph - N/A   Clear
1:15 AM 73.6 °F - 71.2 °F 92% 29.96 in 10.0 mi SW 4.6 mph - N/A   Clear
1:35 AM 72.9 °F - 70.9 °F 93% 29.97 in 10.0 mi SSW 4.6 mph - N/A   Clear
1:55 AM 72.5 °F - 70.9 °F 95% 29.97 in 10.0 mi SW 3.5 mph - N/A   Clear
2:15 AM 72.0 °F - 70.7 °F 96% 29.97 in 10.0 mi Calm Calm - N/A   Clear
2:35 AM 72.0 °F - 70.7 °F 96% 29.97 in 10.0 mi SSW 3.5 mph - N/A   Clear
2:55 AM 72.1 °F - 70.7 °F 95% 29.96 in 10.0 mi Calm Calm - N/A   Clear
3:15 AM 71.4 °F - 70.5 °F 97% 29.96 in 10.0 mi Calm Calm - N/A   Clear
3:35 AM 71.6 °F - 70.7 °F 97% 29.96 in 10.0 mi Calm Calm - N/A   Clear
3:55 AM 71.6 °F - 70.5 °F 96% 29.97 in 10.0 mi Calm Calm - N/A   Clear
4:15 AM 69.8 °F - 69.4 °F 99% 29.98 in 10.0 mi Calm Calm - N/A   Clear
4:35 AM 69.3 °F - 69.3 °F 100% 29.99 in 10.0 mi Calm Calm - N/A   Clear
4:55 AM 69.6 °F - 69.6 °F 100% 29.99 in 10.0 mi Calm Calm - N/A   Clear
5:15 AM 69.3 °F - 69.3 °F 100% 29.99 in 10.0 mi Calm Calm - N/A   Clear
5:35 AM 68.9 °F - 68.9 °F 100% 29.99 in 10.0 mi Calm Calm - N/A   Clear
5:55 AM 68.5 °F - 68.5 °F 100% 29.99 in 10.0 mi Calm Calm - N/A   Clear
6:15 AM 68.7 °F - 68.7 °F 100% 30.00 in 10.0 mi Calm Calm - N/A   Clear
6:35 AM 69.4 °F - 69.4 °F 100% 30.01 in 10.0 mi SSE 3.5 mph - N/A   Clear
6:55 AM 70.2 °F - 70.2 °F 100% 30.01 in 10.0 mi SE 3.5 mph - N/A   Clear
7:15 AM 70.9 °F - 70.9 °F 100% 30.02 in 10.0 mi Calm Calm - N/A   Clear
7:35 AM 72.0 °F - 71.6 °F 99% 30.02 in 10.0 mi SE 3.5 mph - N/A   Clear
7:55 AM 73.2 °F - 72.1 °F 96% 30.03 in 10.0 mi Calm Calm - N/A   Clear
8:15 AM 74.3 °F - 72.5 °F 94% 30.04 in 10.0 mi SE 3.5 mph - N/A   Mostly Cloudy
8:35 AM 75.2 °F - 72.9 °F 92% 30.04 in 10.0 mi SSE 3.5 mph - N/A   Scattered Clouds
8:55 AM 76.6 °F - 73.4 °F 90% 30.04 in 10.0 mi Calm Calm - N/A   Clear
9:15 AM 77.9 °F - 73.9 °F 88% 30.04 in 10.0 mi Calm Calm - N/A   Clear
9:35 AM 79.7 °F - 75.0 °F 86% 30.04 in 10.0 mi SE 3.5 mph - N/A   Clear
9:55 AM 80.6 °F 86.4 °F 75.6 °F 85% 30.05 in 10.0 mi ESE 3.5 mph - N/A   Clear
10:15 AM 81.7 °F 88.7 °F 76.1 °F 83% 30.05 in 10.0 mi ESE 3.5 mph - N/A   Clear
10:35 AM 82.8 °F 91.3 °F 76.6 °F 82% 30.04 in 10.0 mi Calm Calm - N/A   Clear
10:55 AM 83.5 °F 91.9 °F 75.9 °F 78% 30.04 in 10.0 mi Calm Calm - N/A   Clear
11:15 AM 85.1 °F 96.2 °F 77.7 °F 78% 30.04 in 10.0 mi East 3.5 mph - N/A   Clear
11:35 AM 86.2 °F 98.3 °F 77.7 °F 76% 30.04 in 10.0 mi Calm Calm - N/A   Clear
11:55 AM 86.4 °F 98.3 °F 77.5 °F 75% 30.04 in 10.0 mi SW 4.6 mph - N/A   Clear
12:15 PM 87.1 °F 99.8 °F 77.9 °F 74% 30.04 in 10.0 mi SSW 5.8 mph - N/A   Clear
12:35 PM 88.3 °F 102.9 °F 78.8 °F 73% 30.03 in 10.0 mi SSW 4.6 mph - N/A   Clear
12:55 PM 88.2 °F 101.2 °F 77.5 °F 71% 30.03 in 10.0 mi SSE 3.5 mph - N/A   Clear
1:15 PM 90.0 °F 104.5 °F 78.1 °F 68% 30.02 in 10.0 mi South 5.8 mph - N/A   Clear
1:35 PM 90.3 °F 104.8 °F 77.9 °F 67% 30.02 in 10.0 mi SSE 6.9 mph - N/A   Scattered Clouds
1:55 PM 90.0 °F 105.1 °F 78.6 °F 69% 30.02 in 10.0 mi SW 4.6 mph - N/A   Mostly Cloudy
2:15 PM 91.0 °F 106.2 °F 78.3 °F 66% 30.01 in 10.0 mi SSE 6.9 mph - N/A   Mostly Cloudy
2:35 PM 90.5 °F 104.7 °F 77.9 °F 66% 30.01 in 10.0 mi SSE 5.8 mph - N/A   Mostly Cloudy
2:55 PM 90.7 °F 103.8 °F 77.2 °F 64% 30.00 in 10.0 mi SSE 5.8 mph - N/A   Overcast
3:15 PM 91.2 °F 104.0 °F 76.6 °F 62% 30.00 in 10.0 mi South 4.6 mph - N/A   Mostly Cloudy
3:35 PM 90.7 °F 105.2 °F 78.1 °F 66% 29.99 in 10.0 mi SSE 6.9 mph - N/A   Mostly Cloudy
3:55 PM 91.4 °F 105.8 °F 77.9 °F 64% 29.99 in 10.0 mi South 9.2 mph - N/A   Mostly Cloudy
4:15 PM 91.6 °F 105.6 °F 77.2 °F 63% 29.99 in 10.0 mi South 6.9 mph - N/A   Scattered Clouds
4:35 PM 91.2 °F 106.0 °F 77.9 °F 65% 29.99 in 10.0 mi SSE 9.2 mph - N/A Thunderstorm Scattered Clouds
4:55 PM 90.9 °F 104.3 °F 77.4 °F 64% 29.99 in 10.0 mi South 10.4 mph - N/A   Clear
5:15 PM 90.3 °F 104.2 °F 77.4 °F 66% 30.00 in 10.0 mi South 6.9 mph - N/A   Clear
5:35 PM 87.4 °F 99.2 °F 77.2 °F 71% 29.99 in 10.0 mi SSW 9.2 mph - N/A   Scattered Clouds
5:55 PM 85.1 °F 98.0 °F 79.2 °F 82% 29.97 in 7.0 mi SW 6.9 mph - 0.02 in Rain Light Rain
6:15 PM 84.4 °F 94.6 °F 77.4 °F 79% 29.96 in 10.0 mi SW 4.6 mph - N/A Thunderstorm Scattered Clouds
6:35 PM 84.2 °F 94.1 °F 77.2 °F 79% 29.99 in 10.0 mi West 3.5 mph - N/A Thunderstorm Clear
6:55 PM 82.8 °F 91.3 °F 76.6 °F 82% 29.99 in 10.0 mi West 5.8 mph - N/A Thunderstorm Clear
7:15 PM 81.9 °F 89.5 °F 76.6 °F 84% 30.01 in 10.0 mi North 3.5 mph - N/A   Light Drizzle
7:35 PM 81.5 °F 88.7 °F 76.5 °F 85% 30.01 in 10.0 mi Calm Calm - N/A   Clear
7:55 PM 81.5 °F 88.7 °F 76.5 °F 85% 30.00 in 10.0 mi SSW 3.5 mph - N/A   Clear
8:15 PM 79.7 °F - 77.0 °F 91% 30.00 in 10.0 mi Calm Calm - N/A   Clear
8:35 PM 80.1 °F 85.8 °F 77.0 °F 90% 30.01 in 10.0 mi Calm Calm - N/A   Clear
8:55 PM 77.9 °F - 76.3 °F 95% 30.02 in 10.0 mi ENE 4.6 mph - N/A   Clear
9:15 PM 77.9 °F - 76.5 °F 95% 30.02 in 10.0 mi Calm Calm - N/A   Clear
9:35 PM 79.7 °F - 77.0 °F 91% 30.03 in 10.0 mi Calm Calm - N/A   Clear
9:55 PM 80.1 °F 85.8 °F 77.0 °F 90% 30.02 in 10.0 mi South 3.5 mph - N/A   Clear
10:15 PM 78.8 °F - 77.0 °F 94% 30.03 in 10.0 mi SSE 3.5 mph - N/A   Clear
10:35 PM 79.9 °F - 77.2 °F 91% 30.03 in 10.0 mi SSE 3.5 mph - N/A   Clear
10:55 PM 79.7 °F - 77.2 °F 92% 30.03 in 10.0 mi Calm Calm - N/A   Clear
11:15 PM 76.3 °F - 75.7 °F 98% 30.04 in 10.0 mi SSE 3.5 mph - N/A   Clear
11:35 PM 77.9 °F - 77.0 °F 97% 30.03 in 10.0 mi Calm Calm - N/A   Clear
11:55 PM 79.2 °F - 77.2 °F 94% 30.04 in 10.0 mi South 3.5 mph - N/A   Clear